Stations météo

réclame
Mon MeteoGroup
Cap Corse, France (7785): Température de l'air & dewpoint: 01.08.2020 17:00:00 - 07.08.2020 17:00:00 (CEST)Cap Corse, France (7785): Vitesse du vent & gusts: 01.08.2020 17:00:00 - 07.08.2020 17:00:00 (CEST)Cap Corse, France (7785): Direction du vent: 01.08.2020 17:00:00 - 07.08.2020 17:00:00 (CEST)Cap Corse, France (7785): reduced air pressure: 01.08.2020 17:00:00 - 07.08.2020 17:00:00 (CEST)Cap Corse, France (7785): visibility: 01.08.2020 17:00:00 - 07.08.2020 17:00:00 (CEST)Cap Corse, France (7785): Quantités de précipitations: 01.08.2020 17:00:00 - 07.08.2020 17:00:00 (CEST)
Date & Time tt [°C] td [°C] ff [km/h] ff [knt] fx [km/h] fx [knt] dd ppp [hPa] vv [km] rr [mm]
07.08.2020 17:00:00 - - 8 5 17 9 WNW - 20 -
07.08.2020 16:00:00 - - 12 7 18 10 NW - - -
07.08.2020 15:00:00 - - 7 4 16 9 NNW - - -
07.08.2020 14:00:00 - - 5 3 15 8 NNE - 20 -
07.08.2020 13:00:00 - - 5 3 14 7 NNW - - -
07.08.2020 12:00:00 - - 8 4 19 10 E - - -
07.08.2020 11:00:00 - - 11 6 23 13 E - 20 -
07.08.2020 10:00:00 - - 17 9 27 14 E - - -
07.08.2020 09:00:00 - - 18 10 28 15 E - - -
07.08.2020 08:00:00 - - 13 7 22 12 E - - -
07.08.2020 07:00:00 - - 18 10 24 13 ESE - - -
07.08.2020 06:00:00 - - 17 9 23 12 ESE - - -
07.08.2020 05:00:00 - - 13 7 16 9 ESE - - -
07.08.2020 04:00:00 - - 6 3 10 6 ESE - - -
07.08.2020 03:00:00 - - 10 5 13 7 W - - -
07.08.2020 02:00:00 - - 6 4 9 5 W - 20 -
07.08.2020 01:00:00 - - 5 3 12 6 NW - - -
07.08.2020 00:00:00 - - 9 5 14 8 W - - -
06.08.2020 23:00:00 - - 11 6 15 8 WNW - 20 -
06.08.2020 22:00:00 - - 6 3 14 8 NW - - -
06.08.2020 21:00:00 - - 6 3 14 8 N - - -
06.08.2020 20:00:00 - - 4 2 14 8 WNW - 30 -
06.08.2020 19:00:00 - - 3 2 15 8 NE - - -
06.08.2020 18:00:00 - - 10 5 17 9 NNW - - -
06.08.2020 17:00:00 - - 7 4 17 9 NNW - 30 -
06.08.2020 16:00:00 - - 5 3 18 10 N - - -
06.08.2020 15:00:00 - - 8 4 18 10 NNE - - -
06.08.2020 14:00:00 - - 11 6 19 11 NNW - 30 -
06.08.2020 13:00:00 - - 12 6 18 10 NNW - - -
06.08.2020 12:00:00 - - 11 6 17 9 NW - - -
06.08.2020 11:00:00 - - 6 3 16 8 ENE - - -
06.08.2020 10:00:00 - - 4 2 13 7 N - - -
06.08.2020 09:00:00 - - 7 4 13 7 ENE - - -
06.08.2020 08:00:00 - - 6 3 14 8 SSW - - -
06.08.2020 07:00:00 - - 5 3 16 8 SE - - -
06.08.2020 06:00:00 - - 13 7 23 12 S - - -
06.08.2020 05:00:00 - - 19 10 22 12 SSE - - -
06.08.2020 04:00:00 - - 17 9 27 15 SE - 15 -
06.08.2020 03:00:00 - - 19 10 31 17 ESE - - -
06.08.2020 02:00:00 - - 22 12 30 16 SE - - -
06.08.2020 01:00:00 - - 16 9 29 16 ESE - - -
06.08.2020 00:00:00 - - 20 11 26 14 N - - -
05.08.2020 23:00:00 - - 8 4 14 8 NW - 25 -
05.08.2020 22:00:00 - - 4 2 8 5 N - - -
05.08.2020 21:00:00 - - 6 3 10 5 NE - - -
05.08.2020 20:00:00 - - 5 3 19 10 N - 25 -
05.08.2020 19:00:00 - - 9 5 21 11 NNW - - -
05.08.2020 18:00:00 - - 13 7 26 14 N - - -
05.08.2020 17:00:00 - - 16 9 23 12 N - 25 -
05.08.2020 16:00:00 - - 9 5 19 10 N - - -
05.08.2020 15:00:00 - - 8 5 18 10 E - - -
05.08.2020 14:00:00 - - 14 8 23 12 E - - -
05.08.2020 13:00:00 - - 16 9 25 13 E - - -
05.08.2020 12:00:00 - - 16 9 35 19 E - - -
05.08.2020 11:00:00 - - 29 16 38 21 E - 25 -
05.08.2020 10:00:00 - - 25 13 37 20 E - - -
05.08.2020 09:00:00 - - 23 12 33 18 E - - -
05.08.2020 08:00:00 - - 18 10 27 14 ENE - 20 -
05.08.2020 07:00:00 - - 13 7 24 13 ENE - - -
05.08.2020 06:00:00 - - 19 10 29 16 WNW - - -
05.08.2020 05:00:00 - - 16 9 27 14 W - - -
05.08.2020 04:00:00 - - 4 2 25 14 SE - - -
05.08.2020 03:00:00 - - 18 10 25 14 ENE - - -
05.08.2020 02:00:00 - - 14 7 39 21 NNE - 10 -
05.08.2020 01:00:00 - - 28 15 46 25 WNW - - -
05.08.2020 00:00:00 - - 40 22 54 29 WNW - - -
04.08.2020 23:00:00 - - 37 20 52 28 WNW - 20 -
04.08.2020 22:00:00 - - 43 23 61 33 WNW - - -
04.08.2020 21:00:00 - - 42 23 56 30 W - - -
04.08.2020 20:00:00 - - 43 23 55 30 WNW - 20 -
04.08.2020 19:00:00 - - 43 23 55 30 W - - -
04.08.2020 18:00:00 - - 44 24 59 32 W - - -
04.08.2020 17:00:00 - - 43 23 68 37 W - 20 -
04.08.2020 16:00:00 - - 46 25 61 33 W - - -
04.08.2020 15:00:00 - - 45 24 59 32 W - - -
04.08.2020 14:00:00 - - 42 23 55 30 WNW - 20 -
04.08.2020 13:00:00 - - 38 21 57 31 WNW - - -
04.08.2020 12:00:00 - - 41 22 59 32 WNW - - -
04.08.2020 11:00:00 - - 36 19 51 27 WNW - 20 -
04.08.2020 10:00:00 - - 35 19 59 32 WNW - - -
04.08.2020 09:00:00 - - 36 19 56 30 WNW - - -
04.08.2020 08:00:00 - - 24 13 34 18 WNW - - -
04.08.2020 07:00:00 - - 22 12 39 21 NNW - - -
04.08.2020 06:00:00 - - 29 15 63 34 WNW - - -
04.08.2020 05:00:00 - - 42 23 64 35 W - - -
04.08.2020 04:00:00 - - 37 20 126 68 WSW - - -
04.08.2020 03:00:00 20,4 13,4 77 41 125 67 W 1001,8 - 0,8
04.08.2020 02:00:00 23,9 13,1 67 36 120 65 W 1001,9 - 0,0
04.08.2020 01:00:00 24,5 16,0 58 31 114 62 W 1002,4 - 0,0
04.08.2020 00:00:00 24,8 15,1 58 31 100 54 W 1002,6 - 0,0
03.08.2020 23:00:00 24,9 16,1 59 32 108 58 W 1002,6 - 0,0
03.08.2020 22:00:00 24,7 15,3 59 32 111 60 W 1002,9 - 0,0
03.08.2020 21:00:00 24,4 16,1 65 35 119 64 W 1002,8 - 0,0
03.08.2020 20:00:00 24,7 16,7 65 35 127 68 W 1002,8 12 0,0
03.08.2020 19:00:00 25,0 17,0 63 34 125 68 W 1002,9 - 0,0
03.08.2020 18:00:00 26,0 15,7 86 47 144 78 W 1002,7 - 0,0
03.08.2020 17:00:00 25,9 17,5 71 38 125 67 W 1002,4 12 0,0
03.08.2020 16:00:00 27,0 19,1 48 26 111 60 W 1004,5 - 0,0
03.08.2020 15:00:00 26,6 16,8 65 35 117 63 W 1004,4 - 0,0
03.08.2020 14:00:00 27,5 17,4 53 29 115 62 W 1005,0 - 0,0
03.08.2020 13:00:00 26,5 18,4 63 34 104 56 W 1005,3 - 0,0
03.08.2020 12:00:00 26,9 20,5 46 25 84 45 W 1006,0 - 0,0
03.08.2020 11:00:00 26,4 21,6 33 18 77 41 W 1006,3 12 0,0
03.08.2020 10:00:00 25,7 21,4 41 22 75 41 W 1006,7 - 0,0
03.08.2020 09:00:00 25,6 21,3 34 19 84 45 W 1006,9 - 0,0
03.08.2020 08:00:00 26,0 21,0 42 23 81 44 W 1006,4 - 0,0
03.08.2020 07:00:00 26,3 20,6 51 28 80 43 W 1006,0 - 0,0
03.08.2020 06:00:00 26,4 19,3 51 28 76 41 W 1006,3 - 0,0
03.08.2020 05:00:00 26,7 18,6 48 26 84 45 W 1005,6 12 0,0
03.08.2020 04:00:00 26,8 18,9 41 22 86 47 W 1006,2 - 0,0
03.08.2020 03:00:00 27,0 18,8 37 20 69 37 W 1007,1 - 0,0
03.08.2020 02:00:00 27,3 19,1 29 16 63 34 WSW 1007,6 - 0,0
03.08.2020 01:00:00 28,0 18,7 37 20 63 34 WSW 1007,4 - 0,0
03.08.2020 00:00:00 26,9 20,0 29 16 66 35 W 1008,4 - 0,0
02.08.2020 23:00:00 25,9 22,4 29 16 56 30 W 1008,6 12 0,0
02.08.2020 22:00:00 25,7 22,8 35 19 59 32 WSW 1007,9 - 0,0
02.08.2020 21:00:00 25,9 23,2 34 19 64 35 WSW 1007,7 - 0,0
02.08.2020 20:00:00 26,6 22,7 34 18 65 35 W 1008,3 - 0,0
02.08.2020 19:00:00 28,3 22,5 37 20 60 32 W 1008,3 - 0,0
02.08.2020 18:00:00 31,7 15,6 29 16 48 26 WSW 1008,4 - 0,0
02.08.2020 17:00:00 30,9 20,8 21 11 41 22 W 1009,1 - 0,0
02.08.2020 16:00:00 29,8 23,5 11 6 15 8 WNW 1009,6 - 0,0
02.08.2020 15:00:00 29,7 23,4 7 4 16 9 NE 1010,3 - 0,0
02.08.2020 14:00:00 29,5 23,4 11 6 17 9 E 1010,7 - 0,0
02.08.2020 13:00:00 29,8 23,7 13 7 22 12 E 1010,9 - 0,0
02.08.2020 12:00:00 29,4 23,1 8 5 16 9 ENE 1011,0 - 0,0
02.08.2020 11:00:00 29,8 22,8 12 7 21 12 WNW 1010,9 - 0,0
02.08.2020 10:00:00 28,9 22,4 13 7 24 13 W 1011,2 - 0,0
02.08.2020 09:00:00 28,5 22,0 9 5 32 17 W 1011,0 - 0,0
02.08.2020 08:00:00 27,2 22,4 21 11 42 23 WNW 1010,8 - 0,0
02.08.2020 07:00:00 25,9 23,2 24 13 46 25 W 1010,7 - 0,0
02.08.2020 06:00:00 25,5 22,2 21 12 40 22 W 1010,4 - 0,0
02.08.2020 05:00:00 25,5 21,4 16 9 38 21 W 1010,3 - 0,0
02.08.2020 04:00:00 25,6 21,1 11 6 34 19 WSW 1009,7 - 0,0
02.08.2020 03:00:00 25,7 22,6 24 13 41 22 W 1010,4 - 0,0
02.08.2020 02:00:00 25,9 23,0 25 13 51 28 W 1011,5 - 0,0
02.08.2020 01:00:00 26,3 22,2 33 18 52 28 W 1011,6 - 0,0
02.08.2020 00:00:00 26,8 22,0 35 19 66 36 W 1012,0 - 0,0
01.08.2020 23:00:00 27,6 16,2 41 22 66 35 WSW 1011,4 - 0,0
01.08.2020 22:00:00 27,4 17,3 28 15 50 27 W 1011,6 - 0,0
01.08.2020 21:00:00 27,6 18,0 29 15 45 25 W 1011,4 - 0,0
01.08.2020 20:00:00 28,7 16,3 23 12 45 25 W 1011,1 - 0,0
01.08.2020 19:00:00 30,3 15,6 23 12 48 26 W 1011,1 - 0,0
01.08.2020 18:00:00 31,2 16,4 19 10 42 23 W 1011,6 - 0,0
01.08.2020 17:00:00 32,2 11,9 26 14 44 24 W 1012,0 - 0,0

tt = Température de l'air
td = dewpoint
ff = Vitesse du vent
fx = gusts
dd = Direction du vent
ppp = reduced air pressure
vv = visibility
rr = Quantités de précipitations

stations d'obs. à proximité